Weather Roundup
Issued by NWS Chicago, IL

Home | Current Version | Previous Version | Text Only | Print | Product List | Glossary On
Versions: 1 2 3 4 5 6 7 8 9 10 11 12 13 14 15 16 17 18 19 20 21 22 23 24 25 26 27 28 29 30 31 32 33 34 35 36 37 38 39 40 41 42 43 44 45 46 47 48 49 50
000
NZUS59 KLOT 201312
HRRLOT

CHICAGO AREA WEATHER ROUNDUP
NATIONAL WEATHER SERVICE CHICAGO/ROMEOVILLE IL
700 AM CST MON FEB 20 2017

NOTE: "FAIR" INDICATES FEW OR NO CLOUDS BELOW 12,000 FEET WITH NO
SIGNIFICANT WEATHER AND/OR OBSTRUCTIONS TO VISIBILITY.

* THESE STATIONS ARE NOT UNDER NWS QUALITY CONTROL. THEY ALSO MAY NOT
  REPORT WEATHER SUCH AS PRECIPITATION OR FOG.

ILZ005-006-012>014-019>023-201400-
NORTHEAST ILLINOIS

CITY           SKY/WX    TMP DP  RH WIND       PRES   REMARKS
OHARE          CLOUDY    44  42  93 SE8       30.13R FOG
MIDWAY         MOCLDY    49  43  80 SE8       30.14R FOG
AURORA         FOG       45  43  93 SE8       30.12R VSB 1
LANSING*       PTCLDY    44  44 100 SE6       30.15S FOG
JOLIET*        CLOUDY    46  46  97 SE6       30.14R FOG
WAUKEGAN       MOCLDY    43  40  89 SE6       30.13R
DUPAGE AIRPORT PTCLDY    45  42  89 SE6       30.12R FOG
WHEELING       MOCLDY    40  38  93 CALM      30.14S FOG
KANKAKEE*      FOG       42  42  98 CALM      30.15S VSB 1/2
MORRIS*        FOG       45  44  97 CALM      30.11R VSB 1/2
LEWIS AIRPORT*   N/A     45  45 100 S9        30.13R FOG
NORTHERLY ISL    N/A     39  36  89 CALM        N/A
$$

WIZ051-052-058>065-066-070>072-201400-
SOUTHEAST WISCONSIN

CITY           SKY/WX    TMP DP  RH WIND       PRES   REMARKS
MILWAUKEE      CLOUDY    37  31  78 SE3       30.14R
KENOSHA*       CLOUDY    35  33  92 CALM      30.14R FOG
RACINE*        CLOUDY    41  33  73 S6        30.16R
WAUKESHA       PTCLDY    34  30  86 CALM      30.13S
WEST BEND      PTCLDY    32  30  93 CALM      30.14R
$$

INZ001>003-010>013-019-020-201400-
NORTHWEST INDIANA

CITY           SKY/WX    TMP DP  RH WIND       PRES   REMARKS
GARY*          MOCLDY    46  45  93 SE8       30.15R FOG
MICHIGAN CITY* NOT AVBL
RENSSELAER*    NOT AVBL
VALPARAISO     CLOUDY    44  42  93 E5        30.17R FOG
$$

LMZ740>746-201400-
SOUTHERN LAKE MICHIGAN

STATION/POSITION TIME  SKY/WX   TEMP WIND        PRES    VSBY
                                AIR  DIR/SP/G
                 (UTC)          (F)  (DEG/KT/KT) (MB)    (MI)
HARRISON CRIB    1240            42  150/  9/  9   N/A
BURNHAM HARBOR   1300            39   CALM  /  3   N/A
CALUMET HARBOR   1248            46  140/  2/  4 1020.1R
BURNS HARBOR     1240            48  150/  6/ 10 1021.7R
MICHIGAN CITY    1240            46  120/  6/  8   N/A
$$

ABBREVIATIONS USED IN REMARKS
   TC - TEMPERATURE IN CELSIUS
  WCI - WIND CHILL INDEX
   HX - HEAT INDEX
  VSB - VISIBILITY
$$



USA.gov is the U.S. government's official web portal to all federal, state and local government web resources and services.